Burlington, IA

12:58 PM CST on November 18, 2019 (GMT -0600)
Burlington Regional

Weather History for KBRL - September, 2019

Change the Weather History Date:

Thursday, September 19, 2019

  Actual Average Record
Temperature  
Mean Temperature 76 °F 66 °F  
Max Temperature 84 °F 78 °F 94 °F (1948)
Min Temperature 68 °F 55 °F 33 °F (1991)
Degree Days  
Heating Degree Days 0 3  
Month to date heating degree days 0 22  
Since 1 July heating degree days 0 26  
Cooling Degree Days 11 4  
Month to date cooling degree days 167 112  
Year to date cooling degree days 1157 1155  
Growing Degree Days 26 (Base 50)    
Moisture  
Dew Point 67 °F    
Average Humidity 76    
Maximum Humidity 87    
Minimum Humidity 65    
Precipitation  
Precipitation 0.00 in 0.12 in 2.01 in (2010)
Month to date precipitation 2.67 2.32  
Year to date precipitation 34.40 29.57  
Sea Level Pressure  
Sea Level Pressure 30.01 in    
Wind  
Wind Speed 6 mph (SSE)    
Max Wind Speed 17 mph    
Max Gust Speed 22 mph    
Visibility 10 miles    
Events      
T = Trace of Precipitation, MM = Missing Value Source: NWS Daily Summary

Daily Weather History Graph

Daily Weather History Graph

Search for Another Location

Airport or City:

Astronomy

Sep. 19, 2019 Rise Set
Actual Time 6:48 AM CDT 7:07 PM CDT
Civil Twilight 6:21 AM CDT 7:34 PM CDT
Nautical Twilight 5:49 AM CDT 8:06 PM CDT
Astronomical Twilight 5:16 AM CDT 8:39 PM CDT
Moon 10:14 PM CDT (9/19) 11:54 AM CDT (9/19)
Length of Visible Light 13h 12m
Length of Day
12h 18m
Waning Gibbous, 74% of the Moon is Illuminated
Sep 19
Waning Gibbous
Sep 21
Last Quarter
Sep 28
New
Oct 5
First Quarter
Oct 13
Full

Hourly Weather History & Observations

Time (CDT) Temp. Heat Index Dew Point Humidity Pressure Visibility Wind Dir Wind Speed Gust Speed Precip Events Conditions
12:53 AM 73.9 °F - 64.9 °F 73% 30.01 in 10.0 mi South 8.1 mph - N/A   Clear
1:53 AM 73.0 °F - 64.9 °F 76% 30.01 in 10.0 mi South 6.9 mph - N/A   Clear
2:53 AM 73.0 °F - 64.0 °F 73% 30.02 in 10.0 mi South 6.9 mph - N/A   Clear
3:53 AM 72.0 °F - 63.0 °F 73% 30.00 in 10.0 mi South 9.2 mph - N/A   Clear
4:53 AM 71.1 °F - 62.1 °F 73% 29.99 in 10.0 mi South 8.1 mph - N/A   Clear
5:53 AM 70.0 °F - 62.1 °F 76% 29.99 in 10.0 mi South 8.1 mph - N/A   Clear
6:53 AM 69.1 °F - 62.1 °F 78% 30.03 in 10.0 mi South 5.8 mph - N/A   Clear
7:53 AM 71.1 °F - 63.0 °F 75% 30.04 in 8.0 mi SSW 4.6 mph - N/A   Clear
8:53 AM 73.0 °F - 64.0 °F 73% 30.03 in 10.0 mi South 6.9 mph - N/A   Clear
9:53 AM 75.9 °F - 64.9 °F 69% 30.04 in 10.0 mi South 5.8 mph - N/A   Clear
10:53 AM 79.0 °F - 66.9 °F 66% 30.03 in 10.0 mi SSW 8.1 mph - N/A   Mostly Cloudy
11:53 AM 82.0 °F 85.5 °F 69.1 °F 65% 30.05 in 10.0 mi NNW 4.6 mph - N/A   Mostly Cloudy
12:53 PM 82.0 °F 85.5 °F 69.1 °F 65% 30.04 in 10.0 mi NE 13.8 mph - N/A   Clear
1:53 PM 82.0 °F 85.5 °F 69.1 °F 65% 30.04 in 10.0 mi NNE 10.4 mph - N/A   Partly Cloudy
3:53 PM 82.0 °F 85.5 °F 69.1 °F 65% 29.99 in 10.0 mi ESE 6.9 mph - N/A   Clear
4:53 PM 80.1 °F 82.9 °F 69.1 °F 69% 29.99 in 10.0 mi SE 4.6 mph - N/A   Clear
5:53 PM 80.1 °F 83.2 °F 70.0 °F 71% 29.99 in 10.0 mi East 3.5 mph - N/A   Clear
6:53 PM 79.0 °F - 71.1 °F 77% 29.99 in 10.0 mi ESE 3.5 mph - N/A   Clear
7:53 PM 77.0 °F - 71.1 °F 82% 30.00 in 10.0 mi East 3.5 mph - N/A   Clear
8:53 PM 77.0 °F - 71.1 °F 82% 30.01 in 10.0 mi East 4.6 mph - N/A   Clear
9:53 PM 75.9 °F - 70.0 °F 82% 30.01 in 10.0 mi ESE 3.5 mph - N/A   Partly Cloudy
10:53 PM 73.9 °F - 69.1 °F 85% 30.01 in 10.0 mi Calm Calm - N/A   Clear
11:53 PM 75.0 °F - 69.1 °F 82% 30.02 in 10.0 mi South 4.6 mph - N/A   Overcast